Weather in Mitino

Russia / Kostroma Oblast     58°08′45″N   42°09′36″E
temp.,
°C
wind,
m/s
gust,
m/s
humid.,
%
clouds,
%
prec.,
mm/h
press.,
hPa
HPBL,
m
24 may, tue
tue2400:00−1nw389795 0.4 1001397
03:00−1nw3695100 0.4 1002481
06:000nw2694100 0.0 1002410
09:00+2nnw3482100 0.1 1003836
12:00+4n2469100 0.2 10051288
15:00+5n3472100 0.8 10061153
18:00+5n3687100 0.9 1008732
21:000nnw259812 1.0 101099
25 may, wed
wed2500:00+1nnw2796100 0.0 1011239
03:00+1nw2695100 0.0 1012175
06:00+2nw359399 0.0 1012250
09:00+5nnw4788100 0.1 1012761
12:00+4nw3793100 0.1 1013652
15:00+8nw467785 0.4 10121075
18:00+6nw388997 0.8 1012432
21:00+4wnw259583 0.9 1012102
26 may, thu
thu2600:00+1w249694 0.0 101281
03:00+1w249788 0.0 101175
06:00+3w249330 0.0 1010197
09:00+7w237234 0.0 10081007
12:00+9wsw235899 0.2 10071209
15:00+10wsw235598 0.3 10061350
18:00+9wsw1266100 0.1 1005868
21:00+6sse2286100 0.1 100429
27 may, fri
fri2700:00+5se2595100 0.0 1001132
03:00+5ese3898100 0.9 999304
06:00+5e3999100 3.3 996460
09:00+6ese2699100 4.9 995429
12:00+8s1399100 0.6 995240
15:00+7nw2499100 1.4 997376
18:00+6wnw3898100 0.6 1000573
21:00+5sw2398100 0.6 100256
28 may, sat
sat2800:00+6s2798100 0.0 1002205
03:00+5sse2598100 0.0 1001116
06:00+7sse31097100 0.1 1000328
09:00+8ese61498100 4.9 995941
12:00+10ssw6129396 4.3 9921075
15:00+9wsw8178657 5.0 9961357
18:00+11wsw6157716 0.2 9991553
21:00+8wsw513840 0.4 1002861